Total_Precipitation_Accumulation
0.00 0.01 0.06 0.09 0.06 0.09 0.20 0.24 0.06 0.01 0.00 0.00 0.00 0.00 0.00 0.00 0.01 0.03 0.00 0.00 0.00 0.00 0.00 0.00 0.00 0.01 0.03 0.05 0.05 0.06 0.05 0.02 0.01 0.01 0.03 0.06 0.03 0.01 0.00 0.00 0.00 0.00 0.00 0.00 0.01 0.01 0.01 0.00 0.00
0.00 0.01 0.04 0.05 0.06 0.10 0.20 0.27 0.08 0.03 0.01 0.00 0.00 0.00 0.00 0.00 0.00 0.00 0.00 0.00 0.00 0.00 0.00 0.00 0.00 0.01 0.02 0.03 0.05 0.07 0.06 0.03 0.02 0.04 0.06 0.07 0.04 0.01 0.00 0.00 0.00 0.00 0.00 0.00 0.00 0.01 0.00 0.00 0.00
0.00 0.00 0.02 0.03 0.11 0.12 0.12 0.15 0.03 0.01 0.00 0.00 0.00 0.00 0.00 0.00 0.00 0.00 0.00 0.00 0.00 0.00 0.00 0.01 0.01 0.01 0.02 0.02 0.03 0.07 0.09 0.06 0.05 0.08 0.09 0.07 0.06 0.04 0.02 0.02 0.02 0.02 0.00 0.00 0.00 0.01 0.01 0.00 0.00
0.00 0.00 0.00 0.01 0.09 0.11 0.08 0.06 0.04 0.02 0.00 0.00 0.00 0.00 0.00 0.00 0.00 0.00 0.00 0.00 0.00 0.00 0.00 0.00 0.02 0.02 0.02 0.02 0.02 0.04 0.09 0.08 0.06 0.08 0.11 0.09 0.11 0.12 0.07 0.03 0.04 0.05 0.02 0.01 0.01 0.00 0.00 0.01 0.01
0.00 0.00 0.00 0.01 0.05 0.10 0.09 0.06 0.04 0.02 0.00 0.00 0.00 0.00 0.00 0.00 0.00 0.00 0.00 0.00 0.00 0.00 0.00 0.00 0.02 0.02 0.01 0.02 0.03 0.03 0.05 0.06 0.04 0.05 0.05 0.04 0.08 0.15 0.11 0.07 0.05 0.05 0.03 0.02 0.01 0.01 0.01 0.01 0.01
0.00 0.00 0.00 0.01 0.02 0.05 0.07 0.05 0.04 0.03 0.01 0.00 0.00 0.00 0.00 0.00 0.00 0.00 0.00 0.00 0.00 0.00 0.00 0.00 0.01 0.01 0.01 0.00 0.02 0.04 0.04 0.02 0.01 0.01 0.00 0.01 0.02 0.03 0.06 0.07 0.06 0.04 0.02 0.02 0.01 0.01 0.01 0.01 0.02
0.00 0.00 0.00 0.00 0.01 0.01 0.02 0.02 0.02 0.02 0.01 0.01 0.00 0.01 0.01 0.00 0.00 0.00 0.00 0.00 0.00 0.00 0.00 0.00 0.00 0.01 0.00 0.00 0.01 0.02 0.02 0.02 0.01 0.00 0.00 0.01 0.01 0.02 0.04 0.05 0.05 0.05 0.04 0.03 0.02 0.02 0.02 0.02 0.02
0.00 0.00 0.00 0.00 0.00 0.00 0.00 0.01 0.01 0.01 0.01 0.01 0.00 0.01 0.01 0.00 0.00 0.00 0.00 0.00 0.00 0.00 0.00 0.00 0.00 0.01 0.01 0.01 0.01 0.02 0.02 0.01 0.01 0.00 0.00 0.00 0.01 0.01 0.03 0.03 0.03 0.06 0.07 0.04 0.03 0.02 0.02 0.03 0.02
0.00 0.00 0.00 0.00 0.00 0.00 0.00 0.01 0.02 0.01 0.02 0.02 0.00 0.01 0.01 0.00 0.00 0.00 0.00 0.00 0.00 0.00 0.00 0.00 0.00 0.01 0.01 0.01 0.00 0.01 0.01 0.01 0.01 0.02 0.02 0.02 0.01 0.04 0.07 0.05 0.05 0.06 0.07 0.07 0.06 0.07 0.07 0.06 0.03
0.00 0.00 0.00 0.00 0.00 0.00 0.00 0.01 0.01 0.01 0.02 0.01 0.01 0.02 0.01 0.00 0.00 0.00 0.00 0.00 0.00 0.00 0.00 0.00 0.00 0.00 0.01 0.00 0.00 0.00 0.00 0.00 0.00 0.01 0.04 0.07 0.10 0.10 0.05 0.06 0.09 0.15 0.20 0.16 0.14 0.16 0.11 0.10 0.08
0.00 0.00 0.00 0.00 0.00 0.00 0.00 0.00 0.00 0.01 0.03 0.04 0.05 0.07 0.03 0.01 0.00 0.00 0.00 0.00 0.00 0.00 0.00 0.00 0.00 0.00 0.00 0.00 0.00 0.00 0.00 0.00 0.00 0.00 0.03 0.06 0.06 0.03 0.00 0.03 0.08 0.13 0.20 0.18 0.26 0.31 0.27 0.27 0.24
0.00 0.00 0.00 0.00 0.00 0.00 0.00 0.00 0.00 0.02 0.07 0.12 0.13 0.13 0.07 0.02 0.01 0.00 0.00 0.00 0.00 0.00 0.00 0.00 0.00 0.00 0.00 0.00 0.00 0.00 0.00 0.00 0.00 0.00 0.00 0.02 0.02 0.01 0.02 0.08 0.13 0.15 0.16 0.24 0.22 0.29 0.27 0.16 0.11
0.00 0.00 0.00 0.00 0.00 0.00 0.00 0.00 0.01 0.01 0.04 0.17 0.24 0.17 0.04 0.03 0.02 0.01 0.01 0.01 0.00 0.00 0.00 0.00 0.01 0.01 0.01 0.00 0.00 0.00 0.00 0.00 0.00 0.00 0.00 0.00 0.02 0.04 0.08 0.08 0.10 0.05 0.11 0.17 0.16 0.12 0.18 0.21 0.12
0.00 0.00 0.00 0.00 0.00 0.00 0.00 0.00 0.00 0.02 0.03 0.13 0.22 0.20 0.06 0.02 0.02 0.05 0.10 0.07 0.03 0.02 0.02 0.01 0.01 0.01 0.01 0.01 0.00 0.00 0.01 0.00 0.00 0.00 0.00 0.01 0.03 0.09 0.15 0.14 0.14 0.11 0.13 0.20 0.22 0.20 0.36 0.28 0.20
0.00 0.00 0.00 0.00 0.00 0.00 0.00 0.00 0.01 0.03 0.02 0.08 0.17 0.17 0.08 0.03 0.03 0.04 0.06 0.11 0.16 0.18 0.11 0.05 0.05 0.04 0.03 0.02 0.02 0.02 0.03 0.02 0.01 0.01 0.02 0.04 0.06 0.14 0.22 0.27 0.25 0.27 0.25 0.31 0.33 0.38 0.44 0.28 0.26
0.00 0.00 0.00 0.00 0.00 0.00 0.00 0.00 0.00 0.00 0.01 0.03 0.11 0.20 0.16 0.13 0.14 0.13 0.14 0.22 0.26 0.21 0.16 0.17 0.21 0.17 0.10 0.09 0.08 0.08 0.08 0.07 0.07 0.08 0.10 0.14 0.19 0.27 0.38 0.40 0.35 0.46 0.49 0.48 0.52 0.55 0.50 0.43 0.35
0.00 0.00 0.00 0.00 0.00 0.00 0.00 0.00 0.00 0.01 0.02 0.05 0.10 0.21 0.31 0.37 0.46 0.45 0.33 0.25 0.25 0.26 0.31 0.36 0.38 0.35 0.32 0.30 0.23 0.22 0.24 0.19 0.19 0.24 0.28 0.34 0.41 0.47 0.57 0.53 0.59 0.66 0.64 0.65 0.53 0.61 0.58 0.56 0.51
0.00 0.00 0.00 0.00 0.00 0.00 0.00 0.00 0.00 0.00 0.02 0.07 0.18 0.34 0.50 0.73 0.92 0.77 0.57 0.39 0.31 0.32 0.36 0.38 0.42 0.54 0.70 0.71 0.62 0.57 0.46 0.39 0.40 0.46 0.54 0.61 0.64 0.70 0.80 0.77 0.82 0.84 0.86 0.82 0.78 0.75 0.72 0.67 0.63
0.00 0.00 0.00 0.00 0.00 0.00 0.00 0.00 0.00 0.00 0.01 0.04 0.11 0.32 0.56 0.61 0.70 0.65 0.45 0.38 0.40 0.52 0.57 0.66 0.82 0.91 1.00 0.96 0.84 0.81 0.78 0.79 0.77 0.73 0.69 0.71 0.71 0.79 0.94 0.91 1.00 0.95 0.87 0.89 0.90 0.88 0.77 0.73 0.81
0.00 0.00 0.00 0.00 0.00 0.00 0.00 0.00 0.00 0.01 0.01 0.02 0.04 0.10 0.23 0.35 0.40 0.42 0.38 0.42 0.62 0.80 0.83 0.88 0.90 0.93 1.06 1.22 1.29 1.33 1.40 1.22 1.07 1.00 0.90 0.85 0.88 0.92 0.95 0.98 0.95 0.92 0.95 0.98 0.94 1.01 0.88 0.66 0.74
0.00 0.00 0.00 0.00 0.00 0.00 0.00 0.00 0.00 0.01 0.03 0.06 0.11 0.17 0.24 0.33 0.42 0.49 0.49 0.51 0.60 0.68 0.77 0.90 0.98 1.03 1.15 1.32 1.46 1.50 1.53 1.36 1.25 1.15 1.06 0.95 0.94 0.92 0.94 0.95 1.02 1.13 1.14 1.04 0.99 0.98 0.92 0.73 0.70
0.00 0.00 0.00 0.00 0.00 0.00 0.00 0.00 0.00 0.00 0.03 0.08 0.14 0.23 0.31 0.39 0.44 0.49 0.52 0.53 0.56 0.59 0.70 0.88 1.01 1.06 1.16 1.29 1.37 1.36 1.36 1.25 1.24 1.26 1.14 1.05 0.97 0.94 0.93 0.94 0.96 0.94 0.93 0.89 0.80 0.85 0.94 0.87 0.74
0.00 0.00 0.00 0.00 0.00 0.00 0.00 0.00 0.00 0.00 0.02 0.07 0.17 0.26 0.37 0.44 0.42 0.41 0.47 0.49 0.50 0.58 0.70 0.80 0.89 0.94 0.98 1.01 1.05 1.08 1.08 1.09 1.11 1.05 0.97 0.90 0.86 0.85 0.84 0.80 0.78 0.71 0.71 0.78 0.79 0.82 0.84 0.85 0.79
0.00 0.00 0.00 0.00 0.00 0.00 0.01 0.01 0.01 0.02 0.03 0.08 0.22 0.34 0.46 0.53 0.53 0.54 0.55 0.56 0.57 0.66 0.76 0.81 0.82 0.80 0.78 0.76 0.79 0.83 0.86 0.89 0.90 0.88 0.88 0.84 0.81 0.74 0.71 0.72 0.71 0.67 0.69 0.76 0.78 0.78 0.73 0.76 0.77
0.00 0.01 0.06 0.04 0.01 0.01 0.02 0.03 0.04 0.06 0.04 0.09 0.26 0.45 0.57 0.55 0.52 0.51 0.52 0.55 0.58 0.58 0.58 0.61 0.58 0.54 0.50 0.48 0.50 0.53 0.56 0.60 0.65 0.68 0.68 0.63 0.58 0.55 0.54 0.54 0.61 0.63 0.69 0.70 0.67 0.71 0.75 0.79 0.80
0.02 0.05 0.20 0.18 0.05 0.02 0.02 0.02 0.09 0.11 0.14 0.26 0.40 0.50 0.51 0.46 0.43 0.41 0.39 0.38 0.40 0.40 0.39 0.42 0.43 0.46 0.45 0.41 0.39 0.34 0.32 0.33 0.36 0.40 0.46 0.45 0.43 0.42 0.44 0.50 0.60 0.65 0.69 0.68 0.69 0.67 0.69 0.76 0.79
0.05 0.09 0.11 0.24 0.18 0.12 0.02 0.02 0.10 0.16 0.30 0.53 0.68 0.68 0.60 0.46 0.38 0.33 0.29 0.26 0.25 0.27 0.31 0.36 0.40 0.43 0.47 0.46 0.39 0.33 0.27 0.25 0.25 0.29 0.36 0.39 0.41 0.38 0.40 0.46 0.55 0.68 0.78 0.80 0.77 0.75 0.79 0.89 0.93
0.04 0.05 0.07 0.20 0.21 0.19 0.06 0.04 0.14 0.36 0.50 0.61 0.72 0.65 0.49 0.37 0.29 0.24 0.21 0.19 0.19 0.20 0.25 0.32 0.37 0.37 0.38 0.39 0.36 0.29 0.25 0.23 0.24 0.25 0.28 0.29 0.32 0.34 0.39 0.46 0.53 0.58 0.64 0.67 0.66 0.73 0.80 0.86 0.87
0.06 0.09 0.15 0.23 0.22 0.25 0.21 0.17 0.23 0.36 0.52 0.60 0.61 0.50 0.35 0.26 0.19 0.17 0.17 0.18 0.18 0.17 0.22 0.29 0.36 0.39 0.41 0.40 0.39 0.32 0.26 0.23 0.22 0.21 0.22 0.26 0.29 0.32 0.37 0.42 0.42 0.42 0.43 0.44 0.46 0.55 0.64 0.65 0.59
0.03 0.07 0.16 0.27 0.24 0.24 0.26 0.19 0.13 0.17 0.25 0.32 0.34 0.30 0.25 0.20 0.18 0.20 0.22 0.22 0.20 0.21 0.26 0.32 0.37 0.42 0.46 0.48 0.50 0.45 0.38 0.34 0.30 0.25 0.22 0.21 0.23 0.26 0.30 0.32 0.32 0.31 0.32 0.36 0.40 0.47 0.50 0.50 0.46